{"data":{"norad_id":57915,"epoch":"2026-09-20T04:07:30.381888Z","epoch_age_seconds":162894,"freshness":"FRESH","line1":"1 57915U 23147C   26263.17187942 -.00000310  00000+0 -17431-5 0  9998","line2":"2 57915  43.0032 306.6982 0000878 256.1976 103.8778 15.27575384166345","mean_motion":15.27575384,"eccentricity":8.78e-5,"inclination_deg":43.0032,"raan_deg":306.6982,"arg_perigee_deg":256.1976,"mean_anomaly_deg":103.8778,"bstar":-1.7431e-6,"rev_number":16634,"period_min":94.267033567229,"perigee_km":482.46050468625,"apogee_km":483.66533139186,"semimajor_km":6861.1999180391,"source":"CELESTRAK","updated_at":"2026-09-21T09:00:33.740706Z"}}